Weather History for Laramie, WY

Change the Weather History Date:

Saturday, November 10, 2012

  Actual Average Record
Temperature  
Mean Temperature 28 °F 32 °F  
Max Temperature 44 °F 44 °F 68 °F (1980)
Min Temperature 11 °F 20 °F -23 °F (1950)
Degree Days  
Heating Degree Days 37 33  
Month to date heating degree days 238 310  
Since 1 July heating degree days 1303 1553  
Cooling Degree Days 0 0  
Month to date cooling degree days 0 0  
Year to date cooling degree days 211 67  
Moisture  
Dew Point 24 °F    
Average Humidity 74    
Maximum Humidity 100    
Minimum Humidity 47    
Precipitation  
Precipitation 0.16 in 0.02 in 0.18 in (2008)
Month to date precipitation 0.16 0.21  
Year to date precipitation 6.06 10.27  
Sea Level Pressure  
Sea Level Pressure 29.52 in    
Wind  
Wind Speed 14 mph (NW)    
Max Wind Speed 45 mph    
Max Gust Speed 56 mph    
Visibility 8 miles    
Events Rain , Snow    
T = Trace of Precipitation, MM = Missing Value Source: NWS Daily Summary

Daily Weather History Graph

Daily Weather History Graph

Search for Another Location

Airport:

Trip Planner

Search our weather history database for the weather conditions in past years. The results will help you decide how hot, cold, wet, or windy it might be!

Date:

Astronomy

Nov. 10, 2012 Rise Set
Actual Time 6:45 AM MST 4:47 PM MST
Civil Twilight 6:16 AM MST 5:16 PM MST
Nautical Twilight 5:43 AM MST 5:49 PM MST
Astronomical Twilight 5:10 AM MST 6:22 PM MST
Moon 2:51 AM MST (11/10) 2:37 PM MST (11/10)
Length of Visible Light 11h 00m
Length of Day
10h 01m
Waning Crescent, 14% of the Moon is Illuminated
Nov 10
Waning Crescent
Nov 13
New
Nov 20
First Quarter
Nov 28
Full
Dec 6
Last Quarter

Hourly Weather History & Observations

Time (MST) Temp. Windchill Dew Point Humidity Pressure Visibility Wind Dir Wind Speed Gust Speed Precip Events Conditions
12:53 AM 42.1 °F 32.1 °F 25.0 °F 51% 29.28 in 10.0 mi SW 25.3 mph 34.5 mph N/A   Clear
1:53 AM 39.0 °F 29.3 °F 28.0 °F 65% 29.29 in 10.0 mi SW 19.6 mph - N/A   Clear
2:53 AM 41.0 °F 32.5 °F 28.0 °F 60% 29.23 in 10.0 mi SW 17.3 mph 32.2 mph N/A   Mostly Cloudy
3:53 AM 35.1 °F 23.3 °F 32.0 °F 89% 29.29 in 10.0 mi WSW 23.0 mph 33.4 mph 0.00 in   Partly Cloudy
4:39 AM 35.6 °F 24.0 °F 33.8 °F 93% 29.49 in 7.0 mi WSW 23.0 mph 32.2 mph 0.02 in Rain Rain
4:53 AM 34.0 °F 21.8 °F 33.1 °F 96% 29.34 in 8.0 mi WSW 23.0 mph 31.1 mph 0.03 in Rain Rain
5:01 AM 33.8 °F 22.2 °F 32.0 °F 93% 29.50 in 3.0 mi West 20.7 mph - 0.01 in Snow Light Snow
5:09 AM 33.8 °F 23.9 °F 32.0 °F 93% 29.51 in 2.0 mi West 15.0 mph - 0.02 in Snow Light Snow
5:39 AM 32.0 °F 27.5 °F 32.0 °F 100% 29.52 in 1.2 mi NNW 4.6 mph - 0.05 in Snow Light Snow
5:53 AM 32.0 °F 27.5 °F 32.0 °F 100% 29.44 in 1.2 mi NNE 4.6 mph - 0.07 in Snow Light Snow
6:16 AM 32.0 °F 28.7 °F 32.0 °F 100% 29.54 in 0.8 mi North 3.5 mph - 0.03 in Snow Light Snow
6:25 AM 32.0 °F 28.7 °F 30.2 °F 93% 29.54 in 1.8 mi NNW 3.5 mph - 0.03 in Snow Light Snow
6:34 AM 32.0 °F 26.4 °F 30.2 °F 93% 29.55 in 2.0 mi NNW 5.8 mph - 0.04 in Snow Light Snow
6:43 AM 32.0 °F 26.4 °F 30.2 °F 93% 29.55 in 1.2 mi North 5.8 mph - 0.05 in Snow Light Snow
6:53 AM 32.0 °F - 30.9 °F 96% 29.48 in 1.2 mi Calm Calm - 0.05 in Snow Light Snow
7:04 AM 32.0 °F - 30.2 °F 93% 29.54 in 2.0 mi Calm Calm - 0.00 in Snow Light Snow
7:11 AM 32.0 °F 28.7 °F 30.2 °F 93% 29.53 in 5.0 mi ENE 3.5 mph - 0.00 in Snow Light Snow
7:53 AM 30.9 °F - 30.0 °F 96% 29.46 in 10.0 mi Calm Calm - 0.00 in   Overcast
8:23 AM 30.2 °F 23.4 °F 30.2 °F 100% 29.50 in 6.0 mi East 6.9 mph - N/A   Mostly Cloudy
8:34 AM 30.2 °F 25.4 °F 30.2 °F 100% 29.50 in 6.0 mi ESE 4.6 mph - N/A   Mostly Cloudy
8:41 AM 30.2 °F 24.3 °F 30.2 °F 100% 29.50 in 10.0 mi ESE 5.8 mph - N/A   Mostly Cloudy
8:53 AM 30.9 °F 27.5 °F 30.0 °F 96% 29.40 in 10.0 mi East 3.5 mph - N/A   Scattered Clouds
9:53 AM 32.0 °F 24.8 °F 28.0 °F 85% 29.40 in 10.0 mi SW 8.1 mph - N/A   Overcast
10:15 AM 32.0 °F 20.8 °F 24.8 °F 75% 29.53 in 10.0 mi SW 17.3 mph - N/A   Mostly Cloudy
10:53 AM 33.1 °F 23.0 °F 25.0 °F 72% 29.40 in 10.0 mi SSW 15.0 mph - 0.01 in   Mostly Cloudy
11:53 AM 35.1 °F 24.1 °F 27.0 °F 72% 29.38 in 10.0 mi WSW 19.6 mph - N/A   Clear
12:53 PM 34.0 °F 21.3 °F 21.9 °F 61% 29.41 in 10.0 mi West 25.3 mph 32.2 mph N/A   Partly Cloudy
1:53 PM 35.1 °F 24.5 °F 19.0 °F 52% 29.43 in 10.0 mi West 18.4 mph 25.3 mph N/A   Scattered Clouds
2:53 PM 33.1 °F 20.6 °F 16.0 °F 50% 29.45 in 10.0 mi West 23.0 mph 31.1 mph N/A   Mostly Cloudy
3:53 PM 30.0 °F 17.2 °F 15.1 °F 54% 29.54 in 10.0 mi WNW 20.7 mph 33.4 mph N/A   Clear
4:28 PM 26.6 °F 12.7 °F 15.8 °F 64% 29.59 in 10.0 mi NNW 20.7 mph 28.8 mph N/A   Scattered Clouds
4:53 PM 25.0 °F 9.9 °F 15.1 °F 66% 29.60 in 10.0 mi NW 23.0 mph 28.8 mph N/A   Scattered Clouds
5:53 PM 21.0 °F 5.4 °F 16.0 °F 81% 29.67 in 10.0 mi NNW 20.7 mph 28.8 mph N/A   Clear
6:53 PM 19.0 °F 5.0 °F 14.0 °F 81% 29.70 in 10.0 mi North 15.0 mph - N/A   Mostly Cloudy
7:31 PM 15.8 °F 3.4 °F 14.0 °F 93% 29.68 in 10.0 mi NE 10.4 mph - N/A   Mostly Cloudy
7:39 PM 15.8 °F 1.4 °F 12.2 °F 86% 29.68 in 10.0 mi NNE 13.8 mph - N/A   Mostly Cloudy
7:53 PM 15.1 °F 2.5 °F 12.0 °F 88% 29.75 in 10.0 mi North 10.4 mph - N/A   Scattered Clouds
8:26 PM 14.0 °F 0.5 °F 10.4 °F 86% 29.69 in 10.0 mi NNE 11.5 mph - N/A   Mostly Cloudy
9:34 PM 14.0 °F 5.1 °F 10.4 °F 86% 29.71 in 10.0 mi North 5.8 mph - N/A   Scattered Clouds
9:53 PM 14.0 °F 5.1 °F 10.9 °F 88% 29.79 in 10.0 mi North 5.8 mph - N/A   Clear
10:53 PM 12.9 °F 6.9 °F 9.0 °F 84% 29.79 in 10.0 mi SSW 3.5 mph - N/A   Clear
11:53 PM 12.0 °F 5.9 °F 9.0 °F 88% 29.79 in 10.0 mi West 3.5 mph - N/A   Clear